Regional Weather Roundup
Issued by NWS State College, PA

Home | Current Version | Previous Version | Text Only | Print | Product List | Glossary On
Versions: 1 2 3 4 5 6 7 8 9 10 11 12 13 14 15 16 17 18 19 20 21 22 23 24 25 26 27 28 29 30 31 32 33 34 35 36 37 38 39 40 41 42 43 44 45 46 47 48 49 50
000
ASUS41 KCTP 201610
RWRCTP

REGIONAL WEATHER ROUNDUP
NATIONAL WEATHER SERVICE STATE COLLEGE PA
1200 PM EDT SUN APR 20 2014

Note: "fair" indicates few or no clouds below 12,000 feet with no
significant weather and/or obstructions to visibility.

* = STATION THAT DOES NOT REPORT PRECIPITATION /E.G. RAIN...SNOW...ETC/
    THUNDER OR FOG.

PAZ002>004-007>009-013>016-020>023-029>032-201700-
WESTERN PENNSYLVANIA

CITY           SKY/WX    TMP DP  RH WIND       PRES   REMARKS
ERIE           SUNNY     64  28  25 S10       30.31F
MEADVILLE      NOT AVBL
FRANKLIN*      MOSUNNY   61  28  29 S3        30.35F
NEW CASTLE     FAIR      62  27  26 VRB5      30.33F
BEAVER COUNTY  NOT AVBL
BUTLER*        SUNNY     61  28  29 E8        30.34F
PITTSBURGH INT PTSUNNY   61  25  25 SE13      30.32F
PITTSBURGH     SUNNY     63  26  24 E9        30.32F
INDIANA*       SUNNY     61  21  21 SE7       30.34F
LATROBE        MOSUNNY   63  27  25 SE6       30.34F
WASHINGTON CO* SUNNY     63  28  27 E10       30.34F
$$

PAZ004>006-010>012-017>019-024>028-033>037-041-042-045-046-049>053-201700-
CENTRAL PENNSYLVANIA

CITY           SKY/WX    TMP DP  RH WIND       PRES   REMARKS
BRADFORD       MOSUNNY   57  23  26 VRB6      30.34F
DUBOIS         SUNNY     59  25  27 E13       30.34F
CLEARFIELD     SUNNY     59  23  25 VRB6      30.36F
JOHNSTOWN      SUNNY     55  25  31 SE12G18   30.35F
ALTOONA        SUNNY     57  29  34 CALM      30.39F
STATE COLLEGE  NOT AVBL
WILLIAMSPORT   SUNNY     58  31  35 VRB5      30.41F
SELINSGROVE    SUNNY     59  31  34 SE5       30.42F
FT INDIANTOWN  NOT AVBL
CAPITAL CITY   SUNNY     57  36  45 E10       30.44F
HARRISBURG     MOSUNNY   59  36  42 SE8       30.43F
YORK           SUNNY     59  37  44 SE9       30.43F
$$

PAZ038>040-043-044-047-048-054-055-060>062-067>071-201700-
EASTERN PENNSYLVANIA

CITY           SKY/WX    TMP DP  RH WIND       PRES   REMARKS
SCRANTON       SUNNY     58  27  30 S9        30.40F
MOUNT POCONO   SUNNY     51  27  39 SE8       30.42F
ALLENTOWN      SUNNY     56  32  40 SE5       30.46S
QUAKERTOWN*    SUNNY     54  30  40 E8        30.47S
READING        SUNNY     57  34  41 E10       30.44F
LANCASTER      SUNNY     55  33  43 E8        30.44F
COATESVILLE    NOT AVBL
POTTSTOWN      SUNNY     55  32  41 VRB6      30.47S
BLUE BELL      SUNNY     57  30  35 E8        30.46S
DOYLESTOWN     SUNNY     55  30  38 VRB5      30.46S
WILLOW GROVE   NOT AVBL
NORTH PHILA    MOSUNNY   56  28  34 SE15G22   30.49S
PHILADELPHIA   PTSUNNY   55  29  36 E13       30.49R
$$



USA.gov is the U.S. government's official web portal to all federal, state and local government web resources and services.